Weather History for White Plains, NY

Change the Weather History Date:

Thursday, April 3, 2014

  Actual Average Record
Temperature  
Mean Temperature 50 °F -  
Max Temperature 63 °F 51 °F 71 °F (1981)
Min Temperature 39 °F 34 °F 24 °F (2008)
Degree Days  
Heating Degree Days 14    
Moisture  
Dew Point 25 °F    
Average Humidity 44    
Maximum Humidity 89    
Minimum Humidity 13    
Precipitation  
Precipitation 0.00 in - - ()
Sea Level Pressure  
Sea Level Pressure 30.07 in    
Wind  
Wind Speed 6 mph (NNW)    
Max Wind Speed 9 mph    
Max Gust Speed -    
Visibility 10 miles    
Events Rain    
Averages and records for this station are not official NWS values.
T = Trace of Precipitation, MM = Missing Value Source: NWS Daily Summary

Daily Weather History Graph

Daily Weather History Graph

Search for Another Location

Airport:

Trip Planner

Search our weather history database for the weather conditions in past years. The results will help you decide how hot, cold, wet, or windy it might be!

Date:

Astronomy

Apr. 03, 2014 Rise Set
Actual Time 6:34 AM EDT 7:21 PM EDT
Civil Twilight 6:07 AM EDT 7:49 PM EDT
Nautical Twilight 5:34 AM EDT 8:22 PM EDT
Astronomical Twilight 4:59 AM EDT 8:57 PM EDT
Moon 9:00 AM EDT (4/3) 11:40 PM EDT (4/3)
Length of Visible Light 13h 42m
Length of Day
12h 47m
Waxing Crescent, 17% of the Moon is Illuminated
Apr 3
Waxing Crescent
Apr 7
First Quarter
Apr 15
Full
Apr 22
Last Quarter
Apr 29
New

Hourly Weather History & Observations

Time (EDT) Temp. Windchill Dew Point Humidity Pressure Visibility Wind Dir Wind Speed Gust Speed Precip Events Conditions
12:56 AM 39.0 °F 34.0 °F 36.0 °F 89% 30.09 in 6.0 mi NW 6.9 mph - N/A   Clear
1:56 AM 41.0 °F 38.0 °F 37.9 °F 89% 30.09 in 6.0 mi NW 4.6 mph - N/A   Clear
2:56 AM 42.1 °F 38.4 °F 37.0 °F 82% 30.09 in 8.0 mi North 5.8 mph - N/A   Clear
3:56 AM 45.0 °F 42.6 °F 32.0 °F 60% 30.07 in 10.0 mi North 4.6 mph - N/A   Clear
4:56 AM 43.0 °F 40.3 °F 30.9 °F 62% 30.09 in 10.0 mi NNW 4.6 mph - N/A   Clear
5:56 AM 43.0 °F 38.8 °F 28.9 °F 58% 30.10 in 10.0 mi North 6.9 mph - N/A   Clear
6:56 AM 39.9 °F 37.8 °F 27.0 °F 60% 30.12 in 10.0 mi NNW 3.5 mph - N/A   Scattered Clouds
7:56 AM 43.0 °F 37.7 °F 27.0 °F 53% 30.13 in 10.0 mi NNW 9.2 mph - N/A   Clear
8:56 AM 46.0 °F 42.5 °F 27.0 °F 47% 30.13 in 10.0 mi North 6.9 mph - N/A   Clear
9:56 AM 48.0 °F - 27.0 °F 44% 30.14 in 10.0 mi NNW 5.8 mph - N/A   Clear
10:56 AM 52.0 °F - 25.0 °F 35% 30.13 in 10.0 mi North 9.2 mph - N/A   Clear
11:56 AM 55.0 °F - 21.9 °F 28% 30.10 in 10.0 mi Variable 6.9 mph - N/A   Clear
12:56 PM 57.9 °F - 14.0 °F 18% 30.07 in 10.0 mi NW 9.2 mph - N/A   Clear
1:56 PM 59.0 °F - 15.1 °F 18% 30.06 in 10.0 mi West 8.1 mph - N/A   Clear
2:56 PM 61.0 °F - 14.0 °F 16% 30.04 in 10.0 mi WNW 5.8 mph - N/A   Clear
3:56 PM 61.0 °F - 15.1 °F 17% 30.04 in 10.0 mi NW 5.8 mph - N/A   Clear
4:56 PM 62.1 °F - 10.0 °F 13% 30.01 in 10.0 mi Calm Calm - N/A   Clear
5:56 PM 57.9 °F - 18.0 °F 21% 30.01 in 10.0 mi SSE 5.8 mph - N/A   Clear
6:56 PM 57.0 °F - 18.0 °F 22% 30.01 in 10.0 mi East 4.6 mph - N/A   Clear
7:56 PM 55.0 °F - 18.0 °F 23% 30.02 in 10.0 mi East 3.5 mph - N/A   Clear
8:56 PM 52.0 °F - 26.1 °F 37% 30.02 in 10.0 mi South 4.6 mph - N/A   Clear
9:56 PM 51.1 °F - 28.9 °F 43% 30.05 in 10.0 mi Calm Calm - N/A   Mostly Cloudy
11:56 PM 46.4 °F - 37.4 °F 71% 30.08 in 8.0 mi Calm Calm - N/A Rain Light Rain